Weather History for Bowling Green, KY

Change the Weather History Date:

Tuesday, July 9, 2013

  Actual Average Record
Temperature  
Mean Temperature 83 °F 79 °F  
Max Temperature 93 °F 89 °F 105 °F (1936)
Min Temperature 72 °F 68 °F 52 °F (1891)
Degree Days  
Heating Degree Days 0 0  
Month to date heating degree days 0 0  
Since 1 June heating degree days 0 5  
Since 1 July heating degree days 0 0  
Cooling Degree Days 18 14  
Month to date cooling degree days 88 121  
Year to date cooling degree days 635 579  
Since 1 June cooling degree days 422 426  
Growing Degree Days 32 (Base 50)    
Moisture  
Dew Point 71 °F    
Average Humidity 70    
Maximum Humidity 93    
Minimum Humidity 46    
Precipitation  
Precipitation 0.00 in 0.15 in 2.80 in (1942)
Month to date precipitation 6.27 1.30  
Year to date precipitation 33.17 27.43  
Snow  
Snow 0.00 in 0.00 in 0.00 in ()
Month to date snowfall 0.0 0.0  
Since 1 June snowfall 0.0 0.0  
Since 1 July snowfall 0.0 0.0  
Snow Depth 0.00 in    
Sea Level Pressure  
Sea Level Pressure 30.08 in    
Wind  
Wind Speed 5 mph (SW)    
Max Wind Speed 14 mph    
Max Gust Speed 17 mph    
Visibility 10 miles    
Events      
T = Trace of Precipitation, MM = Missing Value Source: NWS Daily Summary

Daily Weather History Graph

Daily Weather History Graph

Search for Another Location

Airport:

Trip Planner

Search our weather history database for the weather conditions in past years. The results will help you decide how hot, cold, wet, or windy it might be!

Date:

Astronomy

Jul. 09, 2013 Rise Set
Actual Time 5:34 AM CDT 8:07 PM CDT
Civil Twilight 5:03 AM CDT 8:37 PM CDT
Nautical Twilight 4:26 AM CDT 9:15 PM CDT
Astronomical Twilight 3:44 AM CDT 9:56 PM CDT
Moon 6:54 AM CDT (7/9) 8:48 PM CDT (7/9)
Length of Visible Light 15h 33m
Length of Day
14h 33m
New Moon, 2% of the Moon is Illuminated
Jul 9
New Moon
Jul 15
First Quarter
Jul 22
Full
Jul 29
Last Quarter
Aug 6
New

Hourly Weather History & Observations

Time (CDT) Temp. Heat Index Dew Point Humidity Pressure Visibility Wind Dir Wind Speed Gust Speed Precip Events Conditions
12:53 AM 78.1 °F - 72.0 °F 81% 30.11 in 10.0 mi SSW 4.6 mph - N/A   Clear
1:53 AM 75.9 °F - 72.0 °F 87% 30.10 in 10.0 mi Calm Calm - N/A   Clear
2:53 AM 73.0 °F - 70.0 °F 90% 30.10 in 10.0 mi Calm Calm - N/A   Clear
3:53 AM 73.0 °F - 70.0 °F 90% 30.10 in 10.0 mi Calm Calm - N/A   Clear
4:53 AM 73.0 °F - 70.0 °F 90% 30.12 in 10.0 mi Calm Calm - N/A   Clear
5:53 AM 72.0 °F - 70.0 °F 93% 30.12 in 10.0 mi Calm Calm - N/A   Clear
6:53 AM 75.0 °F - 71.1 °F 87% 30.12 in 10.0 mi SSW 3.5 mph - N/A   Clear
7:53 AM 78.1 °F - 72.0 °F 81% 30.12 in 10.0 mi South 3.5 mph - N/A   Clear
8:53 AM 80.1 °F 83.8 °F 72.0 °F 76% 30.12 in 10.0 mi SW 5.8 mph - N/A   Clear
9:53 AM 82.9 °F 88.0 °F 72.0 °F 69% 30.13 in 10.0 mi West 4.6 mph - N/A   Clear
10:53 AM 87.1 °F 94.5 °F 73.0 °F 63% 30.12 in 10.0 mi SW 10.4 mph - N/A   Clear
11:53 AM 89.1 °F 95.0 °F 71.1 °F 55% 30.12 in 10.0 mi SW 6.9 mph - N/A   Partly Cloudy
12:53 PM 91.0 °F 95.2 °F 68.0 °F 47% 30.09 in 10.0 mi SW 8.1 mph - N/A   Clear
1:53 PM 91.9 °F 95.9 °F 68.0 °F 45% 30.09 in 10.0 mi SSW 12.7 mph 16.1 mph N/A   Clear
2:53 PM 93.0 °F 97.9 °F 69.1 °F 45% 30.06 in 10.0 mi SW 9.2 mph 16.1 mph N/A   Partly Cloudy
3:53 PM 91.9 °F 95.9 °F 68.0 °F 45% 30.03 in 10.0 mi Variable 6.9 mph - N/A   Clear
4:53 PM 91.0 °F 95.2 °F 68.0 °F 47% 30.03 in 10.0 mi WSW 6.9 mph - N/A   Scattered Clouds
5:53 PM 91.9 °F 97.4 °F 70.0 °F 48% 30.01 in 10.0 mi WSW 5.8 mph - N/A   Mostly Cloudy
6:53 PM 90.0 °F 95.4 °F 70.0 °F 52% 30.02 in 10.0 mi SW 6.9 mph - N/A   Scattered Clouds
7:53 PM 88.0 °F 93.8 °F 71.1 °F 57% 30.01 in 10.0 mi WSW 5.8 mph - N/A   Clear
8:53 PM 87.1 °F 92.8 °F 71.1 °F 59% 30.03 in 10.0 mi SW 4.6 mph - N/A   Clear
9:53 PM 84.0 °F 89.6 °F 72.0 °F 67% 30.04 in 10.0 mi SSW 4.6 mph - N/A   Clear
10:53 PM 82.0 °F 86.7 °F 72.0 °F 71% 30.03 in 10.0 mi South 4.6 mph - N/A   Clear
11:53 PM 82.0 °F 86.7 °F 72.0 °F 71% 30.02 in 10.0 mi SW 4.6 mph - N/A   Clear